This is the latest recevied weather packets stored in our database for station/object N4ASP-13. If no packets are shown the sender has not sent any weather packets the latest 10 day(s).
| Time | Temp. | Humidity | Pressure | Rain* | Wind** | Luminosity | Snow |
|---|---|---|---|---|---|---|---|
| 1777388852 | 10.56° C | 95% | 1020.8 hPa | 0 mm | - | 172 W/m² | - |
| 1777388791 | 10.56° C | 95% | 1020.8 hPa | 0 mm | - | 146 W/m² | - |
| 1777388732 | 10.56° C | 95% | 1020.9 hPa | 0 mm | - | 134 W/m² | - |
| 1777388672 | 10.56° C | 95% | 1020.9 hPa | 0 mm | - | 137 W/m² | - |
| 1777388611 | 10.56° C | 95% | 1020.9 hPa | 0 mm | - | 132 W/m² | - |
| 1777388553 | 10.56° C | 95% | 1020.9 hPa | 0 mm | - | 153 W/m² | - |
| 1777388493 | 10.56° C | 95% | 1020.8 hPa | 0 mm | - | 102 W/m² | - |
| 1777388433 | 10.56° C | 95% | 1020.7 hPa | 0 mm | - | 91 W/m² | - |
| 1777388371 | 10.56° C | 95% | 1020.8 hPa | 0 mm | - | 91 W/m² | - |
| 1777388312 | 10.56° C | 95% | 1021 hPa | 0 mm | - | 81 W/m² | - |
| 1777388252 | 10.56° C | 95% | 1021 hPa | 0 mm | - | 65 W/m² | - |
| 1777388192 | 10.56° C | 95% | 1020.9 hPa | 0 mm | - | 70 W/m² | - |
| 1777388131 | 10.56° C | 96% | 1020.8 hPa | 0 mm | - | 76 W/m² | - |
| 1777388071 | 10.56° C | 95% | 1020.8 hPa | 0 mm | - | 83 W/m² | - |
| 1777388013 | 10.56° C | 95% | 1020.6 hPa | 0 mm | - | 83 W/m² | - |
| 1777387951 | 10.56° C | 96% | 1020.6 hPa | 0 mm | - | 83 W/m² | - |
| 1777387892 | 10.56° C | 96% | 1020.5 hPa | 0 mm | - | 83 W/m² | - |
| 1777387831 | 10.56° C | 96% | 1020.4 hPa | 0 mm | - | 98 W/m² | - |
| 1777387773 | 10.56° C | 95% | 1020.3 hPa | 0 mm | - | 116 W/m² | - |
| 1777387713 | 10.56° C | 95% | 1020.2 hPa | 0 mm | - | 167 W/m² | - |
| 1777387651 | 10.56° C | 95% | 1020.2 hPa | 0 mm | - | 197 W/m² | - |
| 1777387591 | 10.56° C | 95% | 1020.4 hPa | 0 mm | - | 179 W/m² | - |
| 1777387532 | 10.56° C | 95% | 1020.4 hPa | 0 mm | - | 183 W/m² | - |
| 1777387471 | 10.56° C | 95% | 1020.4 hPa | 0 mm | - | 186 W/m² | - |
| 1777387413 | 10.56° C | 95% | 1020.6 hPa | 0 mm | - | 183 W/m² | - |
* Rain latest hour (hover to see other rain measurements)
** Current wind speed in m/s (hover to see current wind gust speed)